Weather History for KDBN - November, 2012

Change the Weather History Date:

Sunday, November 11, 2012

  Actual Average Record
Temperature  
Mean Temperature 60 °F -  
Max Temperature 78 °F 70 °F 83 °F (1935)
Min Temperature 41 °F 42 °F 27 °F (1977)
Degree Days  
Heating Degree Days 6    
Growing Degree Days 10 (Base 50)    
Moisture  
Dew Point 47 °F    
Average Humidity 72    
Maximum Humidity 100    
Minimum Humidity 30    
Precipitation  
Precipitation 0.00 in - - ()
Sea Level Pressure  
Sea Level Pressure 30.37 in    
Wind  
Wind Speed 2 mph (ESE)    
Max Wind Speed 12 mph    
Max Gust Speed 17 mph    
Visibility 10 miles    
Events      
Averages and records for this station are not official NWS values.
T = Trace of Precipitation, MM = Missing Value Source: NWS Daily Summary

Daily Weather History Graph

Daily Weather History Graph

Search for Another Location

Airport or City:

Trip Planner

Search our weather history database for the weather conditions in past years. The results will help you decide how hot, cold, wet, or windy it might be!

Date:

Astronomy

Nov. 11, 2012 Rise Set
Actual Time 6:58 AM EST 5:33 PM EST
Civil Twilight 6:32 AM EST 5:59 PM EST
Nautical Twilight 6:03 AM EST 6:28 PM EST
Astronomical Twilight 5:33 AM EST 6:57 PM EST
Moon 4:18 AM EST (11/11) 3:50 PM EST (11/11)
Length of Visible Light 11h 26m
Length of Day
10h 34m
Waning Crescent, 7% of the Moon is Illuminated
Nov 11
Waning Crescent
Nov 13
New
Nov 20
First Quarter
Nov 28
Full
Dec 6
Last Quarter

Hourly Weather History & Observations

Time (EST) Temp. Dew Point Humidity Pressure Visibility Wind Dir Wind Speed Gust Speed Precip Events Conditions
12:15 AM 42.8 °F 42.8 °F 100% 30.38 in 10.0 mi Calm Calm - N/A   Clear
12:35 AM 42.8 °F 41.0 °F 93% 30.38 in 10.0 mi Calm Calm - N/A   Clear
12:55 AM 42.8 °F 42.8 °F 100% 30.38 in 10.0 mi Calm Calm - N/A   Clear
1:15 AM 41.0 °F 41.0 °F 100% 30.37 in 10.0 mi Calm Calm - N/A   Clear
1:35 AM 41.0 °F 41.0 °F 100% 30.37 in 10.0 mi Calm Calm - N/A   Clear
1:55 AM 41.0 °F 41.0 °F 100% 30.37 in 10.0 mi Calm Calm - N/A   Clear
2:15 AM 41.0 °F 41.0 °F 100% 30.37 in 10.0 mi Calm Calm - N/A   Clear
2:35 AM 41.0 °F 41.0 °F 100% 30.37 in 10.0 mi Calm Calm - N/A   Clear
2:55 AM 42.8 °F 42.8 °F 100% 30.37 in 10.0 mi Calm Calm - N/A   Clear
3:15 AM 41.0 °F 41.0 °F 100% 30.37 in 10.0 mi Calm Calm - N/A   Clear
3:35 AM 41.0 °F 41.0 °F 100% 30.37 in 10.0 mi Calm Calm - N/A   Clear
3:55 AM 41.0 °F 41.0 °F 100% 30.37 in 10.0 mi Calm Calm - N/A   Clear
4:15 AM 41.0 °F 41.0 °F 100% 30.37 in 10.0 mi Calm Calm - N/A   Clear
4:35 AM 41.0 °F 41.0 °F 100% 30.37 in 10.0 mi Calm Calm - N/A   Clear
4:55 AM 41.0 °F 41.0 °F 100% 30.37 in 10.0 mi Calm Calm - N/A   Clear
5:15 AM 41.0 °F 41.0 °F 100% 30.38 in 10.0 mi Calm Calm - N/A   Clear
5:35 AM 41.0 °F 41.0 °F 100% 30.38 in 10.0 mi Calm Calm - N/A   Clear
5:55 AM 41.0 °F 41.0 °F 100% 30.38 in 10.0 mi Calm Calm - N/A   Clear
6:15 AM 41.0 °F 41.0 °F 100% 30.39 in 10.0 mi Calm Calm - N/A   Scattered Clouds
6:35 AM 41.0 °F 41.0 °F 100% 30.39 in 10.0 mi Calm Calm - N/A   Mostly Cloudy
6:55 AM 41.0 °F 41.0 °F 100% 30.39 in 7.0 mi Calm Calm - N/A   Clear
7:15 AM 41.0 °F 41.0 °F 100% 30.41 in 10.0 mi Calm Calm - N/A   Scattered Clouds
7:35 AM 44.6 °F 44.6 °F 100% 30.41 in 10.0 mi Calm Calm - N/A   Overcast
7:55 AM 46.4 °F 46.4 °F 100% 30.42 in 10.0 mi Calm Calm - N/A   Overcast
8:15 AM 50.0 °F 46.4 °F 87% 30.42 in 10.0 mi Calm Calm - N/A   Overcast
8:35 AM 51.8 °F 46.4 °F 82% 30.43 in 10.0 mi Calm Calm - N/A   Overcast
8:55 AM 51.8 °F 46.4 °F 82% 30.43 in 10.0 mi Calm Calm - N/A   Overcast
9:15 AM 53.6 °F 46.4 °F 77% 30.44 in 10.0 mi Calm Calm - N/A   Overcast
9:55 AM 57.2 °F 46.4 °F 67% 30.45 in 10.0 mi Calm Calm - N/A   Overcast
10:15 AM 60.8 °F 46.4 °F 59% 30.45 in 10.0 mi Calm Calm - N/A   Overcast
10:35 AM 62.6 °F 46.4 °F 55% 30.45 in 10.0 mi East 4.6 mph - N/A   Overcast
10:55 AM 64.4 °F 46.4 °F 52% 30.44 in 10.0 mi East 3.5 mph - N/A   Overcast
11:15 AM 66.2 °F 46.4 °F 49% 30.44 in 10.0 mi East 4.6 mph - N/A   Overcast
11:35 AM 69.8 °F 48.2 °F 46% 30.43 in 10.0 mi ENE 3.5 mph - N/A   Overcast
11:55 AM 71.6 °F 50.0 °F 46% 30.42 in 10.0 mi East 6.9 mph - N/A   Overcast
12:15 PM 73.4 °F 48.2 °F 41% 30.41 in 10.0 mi East 6.9 mph - N/A   Mostly Cloudy
12:35 PM 73.4 °F 46.4 °F 38% 30.40 in 10.0 mi ESE 3.5 mph - N/A   Scattered Clouds
12:55 PM 75.2 °F 44.6 °F 34% 30.39 in 10.0 mi East 4.6 mph - N/A   Scattered Clouds
1:15 PM 78.8 °F 44.6 °F 30% 30.37 in 10.0 mi SSE 8.1 mph - N/A   Mostly Cloudy
1:35 PM 77.0 °F 44.6 °F 32% 30.37 in 10.0 mi SE 9.2 mph - N/A   Mostly Cloudy
1:55 PM 77.0 °F 44.6 °F 32% 30.36 in 10.0 mi SE 8.1 mph - N/A   Scattered Clouds
2:15 PM 77.0 °F 44.6 °F 32% 30.35 in 7.0 mi SE 6.9 mph 17.3 mph N/A   Mostly Cloudy
2:35 PM 77.0 °F 44.6 °F 32% 30.34 in 7.0 mi SSE 5.8 mph - N/A   Overcast
2:55 PM 75.2 °F 44.6 °F 34% 30.34 in 5.0 mi SSE 10.4 mph - N/A   Haze
3:15 PM 77.0 °F 44.6 °F 32% 30.34 in 7.0 mi SSE 8.1 mph - N/A   Mostly Cloudy
3:35 PM 78.8 °F 44.6 °F 30% 30.34 in 10.0 mi ESE 10.4 mph 17.3 mph N/A   Mostly Cloudy
3:55 PM 75.2 °F 46.4 °F 36% 30.34 in 7.0 mi SSE 10.4 mph - N/A   Mostly Cloudy
4:15 PM 75.2 °F 48.2 °F 38% 30.34 in 7.0 mi SE 11.5 mph - N/A   Overcast
4:35 PM 73.4 °F 48.2 °F 41% 30.34 in 10.0 mi SE 9.2 mph - N/A   Overcast
4:55 PM 73.4 °F 48.2 °F 41% 30.34 in 10.0 mi SE 8.1 mph - N/A   Mostly Cloudy
5:15 PM 73.4 °F 50.0 °F 44% 30.34 in 10.0 mi ESE 5.8 mph - N/A   Scattered Clouds
5:35 PM 71.6 °F 50.0 °F 46% 30.34 in 10.0 mi ESE 5.8 mph - N/A   Clear
5:55 PM 69.8 °F 51.8 °F 53% 30.34 in 10.0 mi ESE 3.5 mph - N/A   Clear
6:15 PM 69.8 °F 51.8 °F 53% 30.34 in 10.0 mi Calm Calm - N/A   Clear
6:35 PM 66.2 °F 51.8 °F 60% 30.35 in 10.0 mi Calm Calm - N/A   Clear
6:55 PM 62.6 °F 51.8 °F 68% 30.35 in 10.0 mi Calm Calm - N/A   Clear
7:15 PM 62.6 °F 53.6 °F 72% 30.35 in 10.0 mi East 3.5 mph - N/A   Clear
7:35 PM 62.6 °F 53.6 °F 72% 30.35 in 10.0 mi East 3.5 mph - N/A   Clear
7:55 PM 62.6 °F 53.6 °F 72% 30.35 in 10.0 mi Calm Calm - N/A   Clear
8:15 PM 60.8 °F 51.8 °F 72% 30.35 in 10.0 mi East 3.5 mph - N/A   Clear
8:35 PM 62.6 °F 53.6 °F 72% 30.34 in 10.0 mi ESE 5.8 mph - N/A   Clear
8:55 PM 62.6 °F 53.6 °F 72% 30.35 in 10.0 mi ESE 5.8 mph - N/A   Clear
9:15 PM 62.6 °F 53.6 °F 72% 30.35 in 10.0 mi ESE 5.8 mph - N/A   Clear
9:35 PM 62.6 °F 55.4 °F 77% 30.34 in 10.0 mi ESE 6.9 mph - N/A   Clear
9:55 PM 62.6 °F 55.4 °F 77% 30.35 in 10.0 mi ESE 5.8 mph - N/A   Clear
10:15 PM 62.6 °F 55.4 °F 77% 30.35 in 10.0 mi ESE 3.5 mph - N/A   Clear
10:35 PM 62.6 °F 59.0 °F 88% 30.36 in 10.0 mi ESE 3.5 mph - N/A   Clear
10:55 PM 60.8 °F 59.0 °F 94% 30.35 in 10.0 mi ESE 3.5 mph - N/A   Clear
11:15 PM 60.8 °F 59.0 °F 94% 30.35 in 10.0 mi Calm Calm - N/A   Clear
11:35 PM 55.4 °F 53.6 °F 94% 30.35 in 10.0 mi Calm Calm - N/A   Clear
11:55 PM 53.6 °F 53.6 °F 100% 30.35 in 3.0 mi Calm Calm - N/A   Clear